Regional Weather Roundup
Issued by NWS

Home | Current Version | Previous Version | Graphics & Text | Print | Product List | Glossary On
Versions: 1 2 3 4 5 6 7 8 9 10 11 12 13 14 15 16 17 18 19 20 21 22 23 24 25 26 27
000
ASUS45 KBOU 030907
RWRCO

WEATHER ROUNDUP FOR COLORADO
NATIONAL WEATHER SERVICE DENVER/BOULDER CO
200 AM MST SAT DEC 03 2016

NOTE: "FAIR" INDICATES FEW OR NO CLOUDS BELOW 12000 FEET WITH NO
SIGNIFICANT WEATHER AND/OR OBSTRUCTIONS TO VISIBILITY.

COZ001>005-013-030-031-031000-
...NORTHWEST COLORADO...

CITY           SKY/WX    TMP DP  RH WIND       PRES   REMARKS
CRAIG          NOT AVBL
HAYDEN         MOCLDY    18  10  73 S5        30.17R WCI  11
MEEKER         FAIR       7   3  85 CALM      30.19S
MOUNT WERNER   NOT AVBL
STEAMBOAT SPGS CLOUDY    16  14  93 CALM      30.15R
WALDEN           N/A      1  -4  78 CALM      30.08R
$$

COZ006>008-011-031000-
...WEST CENTRAL VALLEYS...

CITY           SKY/WX    TMP DP  RH WIND       PRES   REMARKS
GRAND JUNCTION NOT AVBL
MONTROSE       NOT AVBL
EAGLE          NOT AVBL
RIFLE          NOT AVBL
DELTA          CLOUDY    30  27  89 CALM      30.21R
NUCLA          NOT AVBL
$$

COZ017>023-064>068-031000-
...SOUTHWEST COLORADO...

CITY           SKY/WX    TMP DP  RH WIND       PRES   REMARKS
DURANGO        NOT AVBL
CORTEZ         NOT AVBL
PAGOSA SPRINGS NOT AVBL
TELLURIDE      NOT AVBL
WOLF CREEK PAS SNOW      12  12 100 S8        30.10R VSB 1/2 WCI   1
$$

COZ009-010-012-014-032>034-037-058>063-031000-
...CENTRAL COLORADO...

CITY           SKY/WX    TMP DP  RH WIND       PRES   REMARKS
ASPEN          NOT AVBL
BUENA VISTA    CLOUDY    12   8  84 CALM      30.10F
COPPER MTN     NOT AVBL
BERTHOUD PASS  FAIR       5  -6  61 W25G37    29.93F WCI -18
COTTONWOOD PAS LGT SNOW  16  12  86 CALM      30.03F
GUNNISON       NOT AVBL
KREMMLING      FLURRIES  12   9  85 CALM      30.12S
LEADVILLE      NOT AVBL
MONARCH PASS   CLOUDY    10   7  85 SW22      30.11S WCI  -9
SALIDA         NOT AVBL
SUNLIGHT       LGT SNOW N/A N/A N/A SW8       30.09S
WILKERSON PASS LGT SNOW  12   9  85 SW14G24   30.00F VSB 3/4 WCI  -3
$$

COZ069>075-031000-
...SAN LUIS VALLEY/SANGRE DE CRISTO MOUNTAINS...

CITY           SKY/WX    TMP DP  RH WIND       PRES   REMARKS
ALAMOSA        CLOUDY    17  15  92 W8        30.12R WCI   7
LA VETA PASS   FAIR      19  16  86 NE17G25   30.03F WCI   4
SAGUACHE       CLOUDY    23  18  80 NW8       30.09S WCI  14
$$

COZ035-036-038>040-031000-
...NORTHERN COLORADO FRONT RANGE...

CITY           SKY/WX    TMP DP  RH WIND       PRES   REMARKS
DENVER INTL AP NOT AVBL
DMNS CITY PARK   N/A     21  17  85 E7        30.07F WCI  12
AURORA         PTCLDY    21  16  79 CALM      30.07F
FRONT RANGE AP FAIR      19  16  86 S7        30.07F WCI  10
ERIE MUNI ARPT FAIR      19  17  90 CALM      30.09S
BOULDER MUN AP FAIR      23  18  80 CALM      30.07F
CENTENNIAL     NOT AVBL
BROOMFIELD     FAIR      27  21  80 CALM      30.07F
FORT COLLINS   FAIR      23  21  93 CALM      30.10S
LONGMONT       FAIR      20  15  83 NW3       30.11F
$$

COZ041-046-047-076>085-087-088-031000-
...PIKES PEAK/PALMER DIVIDE AND SOUTHERN FOOTHILLS...

CITY           SKY/WX    TMP DP  RH WIND       PRES   REMARKS
COLO. SPRINGS  MOCLDY    25  18  74 SE13      30.10F WCI  14
A. F. ACADEMY  FAIR      20  15  82 S3        30.07F
SCHRIEVER AFB  NOT AVBL
ELLICOTT       CLOUDY   N/A N/A N/A S12       30.10F
FALCON         CLOUDY    23  17  80 S10       30.09F WCI  12
FORT CARSON    CLOUDY    27  19  72 S13       30.10F WCI  16
LIMON          NOT AVBL
MONUMENT HILL  FAIR      19  16  86 S15G22    30.04F WCI   5
TRINIDAD       FAIR      18  16  92 NW6       30.13F WCI  10
$$

COZ042>045-048>051-090-091-031000-
...NORTHEAST COLORADO...

CITY           SKY/WX    TMP DP  RH WIND       PRES   REMARKS
GREELEY ARPT   NOT AVBL
AKRON          NOT AVBL
BURLINGTON     NOT AVBL
WRAY           CLOUDY    30  21  69 CALM      30.20F
STERLING       CLOUDY    25  21  86 CALM      30.14F
HOLYOKE        MOCLDY    34  23  64 S14       30.19S WCI  24
FORT MORGAN    FAIR      19  16  86 S7        30.13F WCI  10
$$

COZ086-089-092>099-031000-
...SOUTHEAST COLORADO...

CITY           SKY/WX    TMP DP  RH WIND       PRES   REMARKS
PUEBLO         NOT AVBL
LA JUNTA       NOT AVBL
LAMAR          NOT AVBL
SPRINGFIELD      N/A     29  26  89 SE7       30.19S WCI  22
$$




USA.gov is the U.S. government's official web portal to all federal, state and local government web resources and services.